Location: Newark
(21.1200°N, 73.4000°E)
Time: 02:36:29
(UTC+00:00)

Explorer 11/Cluster Stage 4 - Pass Details

Date: 24 January 2020
Orbit: 467 x 1259 km, 28.8° (Epoch: 19 February)

Event Time Altitude Azimuth Distance (km) Brightness Sun altitude
Rises 04:58:56 0° 194° (SSW) 3,898 10.5 37.1°
Reaches altitude 10° 05:03:48 10° 166° (SSE) 3,087 10.6 37.9°
Maximum altitude 05:06:43 12° 144° (SE) 2,972 10.9 38.3°
Drops below altitude 10° 05:09:43 10° 122° (ESE) 3,199 10.8 38.8°
Sets 05:14:56 0° 96° (E) 4,198 10.8 39.5°
